Location: Newark
(45.7667°N, 11.5167°E)
Time: 10:09:03
(UTC+00:00)

Envisat - Pass Details

Date: 29 January 2020
Orbit: 764 x 766 km, 98.1° (Epoch: 25 February)

Event Time Altitude Azimuth Distance (km) Brightness Sun altitude
Rises 16:39:16 0° 156° (SSE) 3,220 6.2 -4.8°
Reaches altitude 10° 16:41:34 10° 153° (SSE) 2,298 5.4 -5.2°
Maximum altitude 16:46:35 65° 73° (ENE) 840 3.0 -6.0°
Drops below altitude 10° 16:51:38 10° 352° (N) 2,314 5.4 -6.8°
Sets 16:53:57 0° 350° (N) 3,244 6.2 -7.2°
